[Date Prev][Date Next][Thread Prev][Thread Next] - [Date Index][Thread Index][Author Index]

2 Line ISS Keps 7-2



ISS
1 25544U 98067A   02183.13193287  .00032262  00000-0  41884-3 0  6224
2 25544  51.6387 337.9520 0007434 308.1657  36.8188 15.58494478206354


----
Via the sarex mailing list at AMSAT.ORG courtesy of AMSAT-NA.
To unsubscribe, send "unsubscribe sarex" to Majordomo@amsat.org



AMSAT Top AMSAT Home